Location: Bóveda del Río Almar
(40.8572°N, 5.2103°W)
Time: 15:20:49
(UTC+00:00)

Daily predictions for brighter satellites

Satellite Brightness Start Highest point End
(mag) Time Altitude Azimuth Time Altitude Azimuth Time Altitude Azimuth
Cosmos 2084 3.8 19:50:09 10° SW 19:54:14 66° NW 19:58:22 10° NNE
SL-24 R/B 4.2 19:51:55 10° NNE 19:56:23 59° E 20:00:36 10° S
CZ-4 R/B 1.6 19:54:27 10° SE 19:57:52 41° ENE 20:01:18 10° N
CZ-4B R/B 4.0 19:57:01 10° SSE 20:00:53 55° ENE 20:04:50 10° N
ASTEX 1 3.7 19:59:05 10° SSE 20:03:50 50° E 20:08:38 10° N
SPOT 5 2.6 19:59:46 10° SSE 20:04:05 90° NNE 20:08:25 10° NNW
GEOS 3 Rocket 3.8 19:59:58 10° SSE 20:05:14 77° SW 20:10:38 10° NW
Cosmos 1862 3.5 20:01:44 10° NNW 20:05:15 62° W 20:08:45 10° S
Cosmos 2056 Rocket 3.6 20:01:03 10° SSW 20:06:26 82° ESE 20:11:51 10° NNE
Cosmos 1833 Rocket 2.6 20:01:50 10° SSW 20:07:23 69° ESE 20:12:58 10° NNE
CZ-4B R/B 3.9 20:02:41 10° SE 20:07:54 39° ENE 20:13:07 10° N
CSL-04 Rocket 3.7 20:02:55 10° SSE 20:08:27 86° ENE 20:13:57 10° NNW
Cosmos 1624 Rocket 4.0 20:04:16 10° SSW 20:09:25 84° ESE 20:14:37 10° NNE
SJ-6B 4.4 20:08:26 10° SSW 20:11:35 30° W 20:14:42 10° NW
Terra 2.4 20:07:42 10° SE 20:12:03 40° ENE 20:16:26 10° N
Sich 1 Rocket 4.5 20:10:15 10° SSE 20:13:58 28° E 20:17:43 10° NNE
ATLAS 5 CENTAUR R/B 4.1 20:15:45 10° WNW 20:19:15 20° WSW 20:23:12 10° SSW
Cosmos 2058 3.7 20:16:40 10° NNW 20:20:25 49° W 20:24:10 10° S
SJ 16-02 2.4 20:18:01 10° NNW 20:22:03 43° WSW 20:26:03 10° S
Resurs 01 Rocket 4.3 20:19:22 10° SW 20:22:14 17° W 20:25:08 10° NW
MetOp-B 4.4 20:17:25 10° SSE 20:22:35 53° ENE 20:27:47 10° N
PAYLOAD B 4.3 20:18:47 10° SSE 20:24:12 66° ENE 20:29:41 10° N
USA 229 DEB 4.3 20:19:30 10° NNW 20:27:03 63° NE 20:34:05 15° SE
USA 229 4.3 20:19:33 10° NNW 20:27:07 62° NE 20:34:07 15° SE
Cosmos 44 Rocket 3.8 20:23:21 10° S 20:28:00 40° ESE 20:32:48 10° NE
Cosmos 1743 4.4 20:27:28 10° ENE 20:28:16 11° ENE 20:28:34 11° ENE
ISS -3.3 20:26:02 10° SSW 20:29:10 39° SE 20:32:19 10° ENE
Cosmos 1459 Rocket 4.2 20:23:38 10° SSE 20:29:40 51° E 20:35:37 10° NNE
SKYMED 3 4.4 20:28:59 10° NNE 20:32:52 57° E 20:36:45 10° S
Cosmos 2100 Rocket 4.0 20:27:07 10° S 20:33:10 61° E 20:39:21 10° NNE
ATLAS 2AS CENTAUR R/B 3.7 20:29:41 10° SW 20:36:27 51° NW 20:43:07 10° NNE
IRAS Rocket 4.4 20:31:08 10° S 20:36:35 74° WSW 20:42:05 10° NNW
Meteor 2-17 Rocket 4.5 20:30:46 10° N 20:36:53 88° W 20:42:57 10° S
ADEOS 3.6 20:32:34 13° SSE 20:37:07 63° ENE 20:42:17 10° N
SL-24 R/B 4.4 20:34:14 10° N 20:38:27 71° WNW 20:42:59 10° SSW
Spot 2 Rocket 4.0 20:36:58 18° SE 20:40:18 41° ENE 20:45:00 10° N
BREEZE-M DEB (TANK) 3.8 20:38:50 10° NW 20:41:39 45° NNE 20:47:10 14° E
Cosmos 2151 Rocket 3.7 20:37:21 10° SSW 20:41:42 77° W 20:46:04 10° N
SL-4 R/B 2.3 20:38:38 10° NW 20:42:23 51° NNE 20:44:44 21° E
Cosmos 2082 Rocket 3.2 20:40:45 17° SE 20:43:40 26° ESE 20:48:18 10° NE
Okean 2 Rocket 3.0 20:39:37 10° S 20:44:04 83° E 20:48:34 10° N
Cosmos 1536 Rocket 3.7 20:49:50 10° NNW 20:54:11 74° W 20:57:49 15° S
Cosmos 1607 4.2 20:48:39 10° S 20:54:20 42° ESE 21:00:08 10° NE
IRS-1A Rocket 4.3 20:51:01 17° SSE 20:55:34 78° ENE 21:01:27 10° N
Cosmos 2228 3.9 20:55:35 26° ESE 20:56:18 28° E 20:59:48 10° NNE
Timation 1 Rocket 4.3 20:51:47 10° SSW 20:57:47 88° ESE 21:03:49 10° NNE
USA 186 2.1 20:58:27 34° ENE 20:58:27 34° ENE 21:00:50 10° N
Cosmos 292 Rocket 3.7 20:54:11 10° NNW 20:58:58 76° ENE 21:01:33 27° SSE
Okean O Rocket 1.7 20:57:28 28° SE 20:59:32 56° ENE 21:03:45 10° N
DELTA 2 R/B (1) 4.0 20:55:07 10° SW 21:00:15 39° SSE 21:03:11 22° E
ERS-1 Rocket 3.6 20:59:16 10° S 21:04:04 54° W 21:08:59 10° NNW
Helios 1A Rocket 4.4 21:01:35 10° N 21:04:19 27° WNW 21:07:02 10° SW
CZ-4C R/B 1.6 21:01:22 10° SW 21:05:18 79° NW 21:10:16 10° NNE
Cosmos 1725 Rocket 4.0 21:00:02 12° S 21:05:48 68° E 21:12:01 10° NNE
Cosmos 1452 Rocket 3.4 21:01:03 10° S 21:06:15 73° ESE 21:11:28 10° NNE
Cosmos 1697 Rocket 2.7 21:02:49 10° NNW 21:08:27 78° WSW 21:11:51 25° SSE
Cosmos 1741 Rocket 4.1 21:05:23 10° NNW 21:10:39 61° ENE 21:13:00 32° SE
SL-16 R/B 4.4 21:09:29 10° NNE 21:12:00 13° NE 21:14:32 10° ENE
Okean-O 2.5 21:10:27 33° SSE 21:12:23 77° ENE 21:16:47 10° N
Cosmos 1331 Rocket 4.4 21:10:16 10° SSW 21:15:28 64° WNW 21:20:41 10° NNE
ATLAS 3B R/B 2.9 21:08:52 10° NNW 21:16:38 86° NE 21:20:47 29° SE
CZ-4B R/B 4.1 21:19:07 32° E 21:20:19 37° ENE 21:24:41 10° N
Cosmos 968 Rocket 3.8 21:15:59 10° NNW 21:21:10 63° WSW 21:24:03 26° S
USA 245 4.5 21:18:48 32° SE 21:21:21 57° ENE 21:27:06 10° N
Cosmos 1892 Rocket 3.4 21:17:55 10° N 21:22:14 73° E 21:23:28 45° SSE
Cosmos 1455 Rocket 3.0 21:19:52 24° S 21:22:28 85° W 21:26:54 10° N
Cosmos 1302 Rocket 3.9 21:21:11 27° S 21:23:57 63° ESE 21:29:04 10° NNE
Cosmos 2016 Rocket 3.9 21:19:35 15° S 21:24:52 87° E 21:31:08 10° N
Cosmos 2333 Rocket 4.3 21:21:58 10° NNE 21:25:01 14° NE 21:27:39 11° ENE
BREEZE-M DEB (TANK) 4.2 21:23:54 10° WNW 21:27:45 44° SSW 21:32:22 26° SSE
CZ-4 R/B 4.0 21:30:50 10° WSW 21:32:05 11° W 21:33:20 10° WNW
Cosmos 2061 Rocket 4.0 21:29:51 32° SSE 21:32:41 63° E 21:38:51 10° NNE
CZ-4B R/B 2.9 21:33:11 48° NE 21:33:11 48° NE 21:36:07 10° N
Cosmos 1782 2.4 21:32:58 67° SSW 21:33:21 80° W 21:36:53 10° N
Cosmos 724 4.4 21:28:55 10° SW 21:34:59 80° WNW 21:40:58 10° NNE
NOSS 3-3 (A) 3.5 21:34:26 39° S 21:35:59 55° ESE 21:41:36 10° NE
SPOT 3 Rocket 3.5 21:34:29 44° SE 21:36:00 66° ENE 21:41:07 10° N
Cosmos 1980 Rocket 2.1 21:30:55 10° NNW 21:36:38 79° ENE 21:38:33 44° SE
BREEZE-M DEB (TANK) 2.8 21:31:04 10° SW 21:36:17 57° SSW 21:36:17 57° SSW
Cosmos 1850 Rocket 4.2 21:39:40 10° NNW 21:44:45 62° WSW 21:46:30 39° SSW
Terra 4.0 21:46:15 10° SW 21:49:42 20° W 21:53:10 10° NW
IRS-1C Rocket 4.0 21:51:54 55° SE 21:53:01 75° ENE 21:58:18 10° N
Milstar 3 4.0 21:46:43 10° WSW 21:53:13 33° S 21:54:30 32° SSE
CZ-2C R/B 4.3 21:55:17 21° N 21:55:17 21° N 21:56:24 10° N
Cosmos 1758 Rocket 4.1 21:49:49 10° N 21:53:42 44° ENE 21:53:42 44° ENE
Gbstr 26 Del rocket 3.1 21:55:55 10° NW 22:00:40 62° NNE 22:00:52 61° NE
Cosmos 1743 4.1 21:58:36 10° NNW 22:00:44 25° WNW 22:00:44 25° WNW
Cosmos 2360 Rocket 4.2 21:58:53 10° N 22:02:21 16° NE 22:04:14 14° ENE
NOSS 3-3 (C) 3.4 22:02:52 58° S 22:03:51 76° ESE 22:09:44 10° NE
ISS -1.7 22:03:03 10° W 22:06:02 29° NNW 22:08:14 15° NNE
Geosat 3.8 22:07:04 10° NNE 22:12:06 81° ESE 22:12:24 76° SSE
Cosmos 2237 4.2 22:06:44 10° NNW 22:12:29 69° ENE 22:13:13 62° ESE
Ariane Rocket 3.0 22:12:25 64° SSW 22:13:02 73° WSW 22:18:06 10° NNW
USA 305 4.3 22:10:08 10° NNW 22:13:09 26° NNE 22:13:09 26° NNE
Meteor 2-9 4.5 22:10:42 10° N 22:16:09 73° E 22:16:32 70° ESE
SL-4 R/B 3.9 22:16:23 10° WNW 22:18:10 20° W 22:18:10 20° W
Cosmos 1602 Rocket 4.5 22:15:32 10° N 22:18:42 39° NE 22:18:42 39° NE
Cosmos 2219 Rocket 4.4 22:16:53 10° NNE 22:19:47 14° NE 22:21:47 12° ENE
Cosmos 1437 Rocket 4.4 22:21:47 26° NNE 22:21:47 26° NNE 22:23:28 10° NNE
Cosmos 2082 Rocket 3.2 22:22:24 12° SW 22:27:25 45° WNW 22:32:54 10° NNE
Cosmos 2369 3.6 22:22:08 10° NNW 22:27:51 78° WSW 22:28:18 73° SSW
Cosmos 2151 3.7 22:25:51 10° N 22:28:56 50° N 22:28:56 50° N
Cosmos 2322 Rocket 3.5 22:25:30 10° N 22:30:15 27° NE 22:31:03 26° ENE
Cosmos 1891 Rocket 4.4 22:31:36 59° SSW 22:32:50 79° W 22:38:57 10° N
Okean O Rocket 4.1 22:34:42 11° WSW 22:36:03 12° W 22:37:49 10° WNW
Cosmos 1626 Rocket 4.3 22:33:22 10° NNW 22:37:03 48° WNW 22:37:03 48° WNW
Meteor 1-5 Rocket 4.5 22:34:33 10° N 22:40:03 56° ENE 22:40:03 56° ENE
USA 234 3.1 22:35:54 10° NE 22:42:26 69° SE 22:42:49 68° SSE
Cosmos 2278 4.1 22:44:04 10° NNW 22:49:39 51° ENE 22:49:39 51° ENE
Helios 1A 4.5 22:46:39 10° NNE 22:48:44 31° NNE 22:48:44 31° NNE
COSMOS 2406 3.6 22:49:27 50° WSW 22:50:37 61° WNW 22:56:20 10° NNE
SL-16 R/B 2.2 22:51:24 10° NNW 22:56:47 73° NE 22:56:47 73° NE
Cosmos 2098 Rocket 3.8 23:02:09 59° NW 23:02:09 59° NW 23:06:22 10° N
Nadezhda 4 Rocket 3.8 22:56:44 10° N 23:02:50 87° ENE 23:02:50 87° ENE
ATLAS 3B R/B 4.5 23:01:24 10° WNW 23:06:22 19° WSW 23:08:02 18° WSW
Cosmos 2333 Rocket 2.3 23:04:27 10° NNW 23:09:39 74° N 23:09:39 74° N
Cosmos 1980 Rocket 4.4 23:17:07 10° WNW 23:19:49 14° W 23:20:18 13° WSW
Cosmos 2195 Rocket 4.4 23:14:45 10° N 23:20:43 79° NE 23:20:43 79° NE
Cosmos 2026 Rocket 4.0 23:21:09 10° N 23:27:17 76° NE 23:27:17 76° NE
DNEPR-1 R/B 4.5 23:28:08 10° NNW 23:33:34 72° NNE 23:33:34 72° NNE
ALOS 2 4.2 23:43:55 34° N 23:43:55 34° N 23:46:27 10° N
ARIANE 5 R/B 4.1 23:44:33 35° N 23:44:33 35° N 23:47:07 10° NNW
Cosmos 2360 Rocket 2.6 23:41:22 10° NNW 23:45:58 60° NNW 23:45:58 60° NNW
